Content
SEND FEEDBACK

Daily
Averages
Monthly
Summary
United States of America

STATEN ISLAND, NEW YORK


Home > North America > United States > New York
Elevation: 46 meters     Latitude: 40 35N     Longitude: 074 09W

WEATHER
 
SELECT A DAY
Number of Records: 189,888;   Date Range: 1/1/95 - 9/18/14
 
SHARE

PRINT THIS DATA

[ ← Previous Day ]
WEATHER ALMANAC - 22 MARCH, 2013
[ Next Day → ]
[ °F ]   °C
Weather ElementAverageHighLow
Temperature2.1 °C6.1 °C (4:51 pm)-2.8 °C (5:51 am)
Dewpoint-8.9 °C-6.1 °C (9:51 pm)-12.2 °C (1:51 am)
Humidity45.7 %63 % (5:51 am)34 % (2:51 pm)
Barometer1009.5 hPa1012.2 hPa (11:51 pm)1007.5 hPa (2:51 am)
Wind Speed23 km/h35.2 km/h (2:51 pm)
Wind Gust50.1 km/h (4:51 pm)
Weather ElementAverage
Visibility16.1 km
Wind DirectionW (268.3 °)

Weather ElementTotal
Precipitation---
Heating Degree Days16.7 (Base 18.3)
Averaged from 23 records on 22 March, 2013
WEATHER CONDITIONS BREAKOUT
WIND DIRECTION BREAKOUT
WEATHER BY HOUR - 22 MARCH, 2013
[ °F ]   °C
Local TimeTemperatureDewpointHumidityBarometerVisibilityWind DirectionWind SpeedGust SpeedPrecipitationEventsConditions
1:51 AM-1.7 °C-12.2 °C45 %1008.1 hPa16.1 kmWest (270°)16.7 km/hPartly Cloudy
2:51 AM-1.7 °C-11.7 °C47 %1007.5 hPa16.1 kmWest (260°)13 km/hScattered Clouds
3:51 AM-1.7 °C-11.1 °C49 %1007.5 hPa16.1 kmWSW (240°)13 km/hScattered Clouds
4:51 AM-2.2 °C-10 °C56 %1007.5 hPa16.1 kmSW (220°)11.1 km/hScattered Clouds
5:51 AM-2.8 °C-8.9 °C63 %1007.8 hPa16.1 kmWSW (250°)13 km/hScattered Clouds
6:51 AM-2.2 °C-8.3 °C63 %1008.5 hPa16.1 kmWSW (240°)13 km/hPartly Cloudy
7:51 AM-1.1 °C-8.3 °C59 %1009.1 hPa16.1 kmWest (260°)14.8 km/hPartly Cloudy
8:51 AM0 °C-8.3 °C54 %1009.5 hPa16.1 kmWNW (290°)24.1 km/hScattered Clouds
9:51 AM2 °C-9 °C44 %1009.5 hPa16.1 kmWest (270°)24.1 km/h35.2 km/hScattered Clouds
10:51 AM3.9 °C-8.9 °C39 %1009.5 hPa16.1 kmWest (280°)24.1 km/h35.2 km/hScattered Clouds
11:51 AM2.8 °C-9.4 °C41 %1009.5 hPa16.1 kmWNW (290°)33.3 km/h40.7 km/hMostly Cloudy
12:51 PM4.4 °C-9.4 °C36 %1009.1 hPa16.1 kmWNW (290°)27.8 km/h46.3 km/hMostly Cloudy
1:51 PM5 °C-9.4 °C35 %1008.8 hPa16.1 kmWNW (300°)27.8 km/h38.9 km/hMostly Cloudy
2:51 PM5.6 °C-9.4 °C34 %1008.5 hPa16.1 kmWest (280°)35.2 km/h46.3 km/hOvercast
3:51 PM5.6 °C-8.9 °C35 %1008.8 hPa16.1 kmWest (280°)29.6 km/h44.4 km/hMostly Cloudy
4:51 PM6.1 °C-8.9 °C34 %1009.1 hPa16.1 kmWNW (290°)35.2 km/h50.1 km/hMostly Cloudy
5:51 PM5.6 °C-9.4 °C34 %1009.1 hPa16.1 kmWest (270°)27.8 km/h38.9 km/hMostly Cloudy
6:51 PM5 °C-8.9 °C36 %1009.8 hPa16.1 kmWest (270°)31.5 km/h38.9 km/hMostly Cloudy
7:51 PM4.4 °C-8.3 °C40 %1010.8 hPa16.1 kmWest (270°)18.5 km/h29.6 km/hMostly Cloudy
8:51 PM3.9 °C-7.8 °C43 %1011.2 hPa16.1 kmWest (260°)22.2 km/h33.3 km/hPartly Cloudy
9:51 PM2.8 °C-6.1 °C52 %1011.5 hPa16.1 kmWest (260°)22.2 km/hPartly Cloudy
10:51 PM2.2 °C-6.1 °C55 %1011.9 hPa16.1 kmWest (260°)27.8 km/hPartly Cloudy
11:51 PM1.7 °C-6.1 °C57 %1012.2 hPa16.1 kmWest (270°)24.1 km/hScattered Clouds
Hourly data recorded from KEWR, located 0 kilometers away from Staten Island, New York







STORIES FROM OUR PARTNERS